Location: Boullarre
(49.1305°N, 3.0047°E)
Time: 07:53:31
(UTC+00:00)

CZ-4B DEB - Pass Details

Date: 05 October 2023
Orbit: 838 x 858 km, 99.0° (Epoch: 05 December)

Event Time Altitude Azimuth Distance (km) Brightness Sun altitude
Rises 19:46:33 0° 202° (SSW) 3,380 7.3 -24.5°
Reaches altitude 10° 19:49:25 10° 217° (SW) 2,450 6.7 -24.9°
Maximum altitude 19:53:38 23° 268° (W) 1,725 6.4 -25.6°
Drops below altitude 10° 19:57:53 10° 320° (NW) 2,464 7.4 -26.2°
Sets 20:00:46 0° 335° (NNW) 3,406 8.1 -26.6°
